Time,TemperatureF,DewpointF,PressureIn,WindDirection,WindDirectionDegrees,WindSpeedMPH,WindSpeedGustMPH,Humidity,HourlyPrecipIn,Conditions,Clouds,dailyrainin,SoftwareType,DateUTC
2013-02-09 00:01:00,40.0,26.0,28.13,NW,325,4.0,12.0,58,0.00,,,0.00,,2013-02-09 08:01:00,
2013-02-09 00:11:00,40.0,26.0,28.13,NW,325,4.0,12.0,58,0.00,,,0.00,,2013-02-09 08:11:00,
2013-02-09 00:21:00,41.0,27.0,28.13,West,277,6.0,12.0,56,0.00,,,0.00,,2013-02-09 08:21:00,
2013-02-09 00:31:00,42.0,27.0,28.13,West,276,7.0,15.0,55,0.00,,,0.00,,2013-02-09 08:31:00,
2013-02-09 00:41:00,42.0,27.0,28.13,West,276,7.0,15.0,55,0.00,,,0.00,,2013-02-09 08:41:00,
2013-02-09 00:52:00,42.0,27.0,28.13,NNW,333,4.0,13.0,55,0.00,,,0.00,,2013-02-09 08:52:00,
2013-02-09 01:02:00,42.0,27.0,28.12,WNW,285,7.0,13.0,56,0.00,,,0.00,,2013-02-09 09:02:00,
2013-02-09 01:21:00,41.0,27.0,28.12,NW,307,2.0,13.0,57,0.00,,,0.00,,2013-02-09 09:21:00,
2013-02-09 01:31:00,42.0,27.0,28.12,WNW,297,5.0,15.0,56,0.00,,,0.00,,2013-02-09 09:31:00,
2013-02-09 01:41:00,42.0,27.0,28.12,WNW,297,5.0,15.0,56,0.00,,,0.00,,2013-02-09 09:41:00,
2013-02-09 01:52:00,41.0,27.0,28.12,NW,314,8.0,14.0,58,0.00,,,0.00,,2013-02-09 09:52:00,
2013-02-09 02:01:00,39.0,27.0,28.13,NW,307,8.0,16.0,61,0.00,,,0.00,,2013-02-09 10:01:00,
2013-02-09 02:11:00,39.0,27.0,28.13,NW,307,8.0,16.0,61,0.00,,,0.00,,2013-02-09 10:11:00,
2013-02-09 02:21:00,39.0,26.0,28.13,NNW,342,9.0,14.0,60,0.00,,,0.00,,2013-02-09 10:21:00,
2013-02-09 02:31:00,40.0,27.0,28.13,WNW,299,7.0,12.0,59,0.00,,,0.00,,2013-02-09 10:31:00,
2013-02-09 02:41:00,40.0,27.0,28.13,WNW,299,7.0,12.0,59,0.00,,,0.00,,2013-02-09 10:41:00,
2013-02-09 02:52:00,40.0,27.0,28.11,NW,326,8.0,16.0,60,0.00,,,0.00,,2013-02-09 10:52:00,
2013-02-09 03:01:00,40.0,26.0,28.12,NW,305,6.0,13.0,58,0.00,,,0.00,,2013-02-09 11:01:00,
2013-02-09 03:11:00,40.0,26.0,28.12,NW,305,6.0,13.0,58,0.00,,,0.00,,2013-02-09 11:11:00,
2013-02-09 03:21:00,40.0,27.0,28.12,WNW,297,7.0,13.0,59,0.00,,,0.00,,2013-02-09 11:21:00,
2013-02-09 03:31:00,40.0,27.0,28.12,WNW,297,6.0,11.0,59,0.00,,,0.00,,2013-02-09 11:31:00,
2013-02-09 03:41:00,40.0,27.0,28.12,WNW,297,6.0,11.0,59,0.00,,,0.00,,2013-02-09 11:41:00,
2013-02-09 03:52:00,40.0,27.0,28.12,WNW,291,5.0,12.0,59,0.00,,,0.00,,2013-02-09 11:52:00,
2013-02-09 04:02:00,39.0,26.0,28.12,NNE,18,3.0,7.0,60,0.00,,,0.00,,2013-02-09 12:02:00,
2013-02-09 04:11:00,39.0,26.0,28.12,NNE,18,3.0,7.0,60,0.00,,,0.00,,2013-02-09 12:11:00,
2013-02-09 04:21:00,39.0,26.0,28.12,NNE,18,3.0,7.0,60,0.00,,,0.00,,2013-02-09 12:21:00,
2013-02-09 04:32:00,37.0,27.0,28.12,NNW,333,5.0,10.0,67,0.00,,,0.00,,2013-02-09 12:32:00,
2013-02-09 04:42:00,37.0,27.0,28.12,NNW,333,5.0,10.0,67,0.00,,,0.00,,2013-02-09 12:42:00,
2013-02-09 04:52:00,36.0,26.0,28.12,West,260,2.0,4.0,68,0.00,,,0.00,,2013-02-09 12:52:00,
2013-02-09 05:02:00,35.0,27.0,28.12,SE,129,2.0,3.0,72,0.00,,,0.00,,2013-02-09 13:02:00,
2013-02-09 05:11:00,35.0,27.0,28.12,SE,129,2.0,3.0,72,0.00,,,0.00,,2013-02-09 13:11:00,
2013-02-09 05:21:00,33.0,28.0,28.12,ESE,120,0.0,2.0,81,0.00,,,0.00,,2013-02-09 13:21:00,
2013-02-09 05:31:00,32.0,27.0,28.11,ESE,119,1.0,2.0,83,0.00,,,0.00,,2013-02-09 13:31:00,
2013-02-09 05:42:00,32.0,27.0,28.11,ESE,119,1.0,2.0,83,0.00,,,0.00,,2013-02-09 13:42:00,
2013-02-09 05:52:00,31.0,27.0,28.12,ESE,105,0.0,1.0,86,0.00,,,0.00,,2013-02-09 13:52:00,
2013-02-09 06:01:00,31.0,27.0,28.12,SE,146,0.0,3.0,86,0.00,,,0.00,,2013-02-09 14:01:00,
2013-02-09 06:11:00,31.0,27.0,28.12,SE,146,0.0,3.0,86,0.00,,,0.00,,2013-02-09 14:11:00,
2013-02-09 06:21:00,31.0,28.0,28.12,ESE,107,2.0,4.0,87,0.00,,,0.00,,2013-02-09 14:21:00,
2013-02-09 06:31:00,31.0,27.0,28.13,SSW,211,0.0,1.0,86,0.00,,,0.00,,2013-02-09 14:31:00,
2013-02-09 06:41:00,31.0,27.0,28.13,SSW,211,0.0,1.0,86,0.00,,,0.00,,2013-02-09 14:41:00,
2013-02-09 06:52:00,30.0,27.0,28.12,SE,131,0.0,2.0,87,0.00,,,0.00,,2013-02-09 14:52:00,
2013-02-09 07:01:00,31.0,28.0,28.13,SE,131,1.0,3.0,87,0.00,,,0.00,,2013-02-09 15:01:00,
2013-02-09 07:11:00,31.0,28.0,28.13,SE,131,1.0,3.0,87,0.00,,,0.00,,2013-02-09 15:11:00,
2013-02-09 07:21:00,31.0,28.0,28.13,ESE,105,1.0,3.0,88,0.00,,,0.00,,2013-02-09 15:21:00,
2013-02-09 07:31:00,30.0,27.0,28.14,ESE,111,0.0,1.0,88,0.00,,,0.00,,2013-02-09 15:31:00,
2013-02-09 07:41:00,30.0,27.0,28.14,ESE,111,0.0,1.0,88,0.00,,,0.00,,2013-02-09 15:41:00,
2013-02-09 07:52:00,30.0,27.0,28.14,SW,219,0.0,3.0,88,0.00,,,0.00,,2013-02-09 15:52:00,
2013-02-09 08:01:00,30.0,27.0,28.13,East,81,0.0,2.0,87,0.00,,,0.00,,2013-02-09 16:01:00,
2013-02-09 08:11:00,30.0,27.0,28.13,East,81,0.0,2.0,87,0.00,,,0.00,,2013-02-09 16:11:00,
2013-02-09 08:21:00,31.0,27.0,28.13,NE,40,0.0,2.0,86,0.00,,,0.00,,2013-02-09 16:21:00,
2013-02-09 08:31:00,31.0,27.0,28.12,WSW,256,0.0,2.0,85,0.00,,,0.00,,2013-02-09 16:31:00,
2013-02-09 08:41:00,31.0,27.0,28.12,WSW,256,0.0,2.0,85,0.00,,,0.00,,2013-02-09 16:41:00,
2013-02-09 08:52:00,32.0,27.0,28.12,ESE,113,0.0,2.0,83,0.00,,,0.00,,2013-02-09 16:52:00,
2013-02-09 09:01:00,33.0,28.0,28.12,ESE,119,0.0,2.0,81,0.00,,,0.00,,2013-02-09 17:01:00,
2013-02-09 09:11:00,33.0,28.0,28.12,ESE,119,0.0,2.0,81,0.00,,,0.00,,2013-02-09 17:11:00,
2013-02-09 09:21:00,35.0,29.0,28.12,NNW,334,0.0,3.0,77,0.00,,,0.00,,2013-02-09 17:21:00,
2013-02-09 09:31:00,37.0,29.0,28.12,East,100,2.0,6.0,72,0.00,,,0.00,,2013-02-09 17:31:00,
2013-02-09 09:41:00,37.0,29.0,28.12,East,100,2.0,6.0,72,0.00,,,0.00,,2013-02-09 17:41:00,
2013-02-09 09:52:00,36.0,30.0,28.11,ESE,120,1.0,3.0,78,0.00,,,0.00,,2013-02-09 17:52:00,
2013-02-09 10:01:00,37.0,29.0,28.12,West,268,1.0,4.0,73,0.00,,,0.00,,2013-02-09 18:01:00,
2013-02-09 10:11:00,37.0,29.0,28.12,West,268,1.0,4.0,73,0.00,,,0.00,,2013-02-09 18:11:00,
2013-02-09 10:23:00,40.0,31.0,28.11,East,99,1.0,7.0,69,0.00,,,0.00,,2013-02-09 18:23:00,
2013-02-09 10:31:00,40.0,31.0,28.11,South,181,1.0,4.0,71,0.00,,,0.00,,2013-02-09 18:31:00,
2013-02-09 10:41:00,40.0,31.0,28.11,South,181,1.0,4.0,71,0.00,,,0.00,,2013-02-09 18:41:00,
2013-02-09 10:52:00,44.0,31.0,28.10,WNW,294,7.0,16.0,61,0.00,,,0.00,,2013-02-09 18:52:00,
2013-02-09 11:01:00,46.0,31.0,28.10,West,281,9.0,17.0,55,0.00,,,0.00,,2013-02-09 19:01:00,
2013-02-09 11:11:00,46.0,31.0,28.10,West,281,9.0,17.0,55,0.00,,,0.00,,2013-02-09 19:11:00,
2013-02-09 11:22:00,47.0,31.0,28.10,WNW,284,7.0,16.0,54,0.00,,,0.00,,2013-02-09 19:22:00,
2013-02-09 11:31:00,47.0,31.0,28.09,SW,229,8.0,16.0,53,0.00,,,0.00,,2013-02-09 19:31:00,
2013-02-09 11:41:00,47.0,31.0,28.09,SW,229,8.0,16.0,53,0.00,,,0.00,,2013-02-09 19:41:00,
2013-02-09 11:52:00,48.0,32.0,28.09,WNW,293,6.0,18.0,53,0.00,,,0.00,,2013-02-09 19:52:00,
2013-02-09 12:01:00,49.0,32.0,28.08,WNW,295,7.0,14.0,52,0.00,,,0.00,,2013-02-09 20:01:00,
2013-02-09 12:11:00,49.0,32.0,28.08,WNW,295,7.0,14.0,52,0.00,,,0.00,,2013-02-09 20:11:00,
2013-02-09 12:21:00,49.0,32.0,28.07,NW,315,8.0,15.0,51,0.00,,,0.00,,2013-02-09 20:21:00,
2013-02-09 12:31:00,50.0,32.0,28.06,WSW,256,6.0,17.0,50,0.00,,,0.00,,2013-02-09 20:31:00,
2013-02-09 12:41:00,50.0,32.0,28.06,WSW,256,6.0,17.0,50,0.00,,,0.00,,2013-02-09 20:41:00,
2013-02-09 12:52:00,50.0,32.0,28.06,WNW,303,8.0,17.0,49,0.00,,,0.00,,2013-02-09 20:52:00,
2013-02-09 13:01:00,50.0,32.0,28.06,West,276,6.0,16.0,49,0.00,,,0.00,,2013-02-09 21:01:00,
2013-02-09 13:11:00,50.0,32.0,28.06,West,276,6.0,16.0,49,0.00,,,0.00,,2013-02-09 21:11:00,
2013-02-09 13:21:00,50.0,31.0,28.06,WNW,295,7.0,14.0,48,0.00,,,0.00,,2013-02-09 21:21:00,
2013-02-09 13:31:00,51.0,32.0,28.06,WNW,290,8.0,16.0,48,0.00,,,0.00,,2013-02-09 21:31:00,
2013-02-09 13:41:00,51.0,32.0,28.06,WNW,290,8.0,16.0,48,0.00,,,0.00,,2013-02-09 21:41:00,
2013-02-09 13:52:00,51.0,32.0,28.06,WNW,290,8.0,16.0,48,0.00,,,0.00,,2013-02-09 21:52:00,
2013-02-09 14:01:00,50.0,32.0,28.05,SW,221,10.0,18.0,49,0.00,,,0.00,,2013-02-09 22:01:00,
2013-02-09 14:11:00,50.0,32.0,28.05,SW,221,10.0,18.0,49,0.00,,,0.00,,2013-02-09 22:11:00,
2013-02-09 14:21:00,50.0,32.0,28.06,WNW,301,11.0,23.0,49,0.00,,,0.00,,2013-02-09 22:21:00,
2013-02-09 14:31:00,50.0,32.0,28.06,WNW,301,11.0,23.0,49,0.00,,,0.00,,2013-02-09 22:31:00,
2013-02-09 14:41:00,50.0,32.0,28.06,WNW,301,11.0,23.0,49,0.00,,,0.00,,2013-02-09 22:41:00,
2013-02-09 14:52:00,49.0,31.0,28.07,NW,305,8.0,24.0,49,0.00,,,0.00,,2013-02-09 22:52:00,
2013-02-09 15:01:00,49.0,31.0,28.07,NW,314,12.0,21.0,49,0.00,,,0.00,,2013-02-09 23:01:00,
2013-02-09 15:11:00,49.0,31.0,28.07,NW,314,12.0,21.0,49,0.00,,,0.00,,2013-02-09 23:11:00,
2013-02-09 15:21:00,49.0,31.0,28.07,WNW,293,12.0,21.0,49,0.00,,,0.00,,2013-02-09 23:21:00,
2013-02-09 15:31:00,49.0,31.0,28.08,NW,316,9.0,18.0,49,0.00,,,0.00,,2013-02-09 23:31:00,
2013-02-09 15:41:00,49.0,31.0,28.08,NW,316,9.0,18.0,49,0.00,,,0.00,,2013-02-09 23:41:00,
2013-02-09 15:52:00,49.0,31.0,28.09,NNW,347,8.0,15.0,50,0.00,,,0.00,,2013-02-09 23:52:00,
2013-02-09 16:02:00,49.0,31.0,28.09,NW,308,3.0,12.0,50,0.00,,,0.00,,2013-02-10 00:02:00,
2013-02-09 16:11:00,49.0,31.0,28.09,NW,308,3.0,12.0,50,0.00,,,0.00,,2013-02-10 00:11:00,
2013-02-09 16:21:00,49.0,32.0,28.09,NW,305,4.0,10.0,51,0.00,,,0.00,,2013-02-10 00:21:00,
2013-02-09 16:31:00,48.0,31.0,28.09,WNW,302,6.0,9.0,51,0.00,,,0.00,,2013-02-10 00:31:00,
2013-02-09 16:41:00,48.0,31.0,28.09,WNW,302,6.0,9.0,51,0.00,,,0.00,,2013-02-10 00:41:00,
2013-02-09 16:52:00,48.0,31.0,28.10,WSW,257,6.0,13.0,52,0.00,,,0.00,,2013-02-10 00:52:00,
2013-02-09 17:01:00,48.0,31.0,28.10,WNW,302,10.0,18.0,52,0.00,,,0.00,,2013-02-10 01:01:00,
2013-02-09 17:11:00,48.0,31.0,28.10,WNW,302,10.0,18.0,52,0.00,,,0.00,,2013-02-10 01:11:00,
2013-02-09 17:21:00,48.0,31.0,28.10,NW,325,10.0,18.0,52,0.00,,,0.00,,2013-02-10 01:21:00,
2013-02-09 17:31:00,47.0,30.0,28.12,NW,304,8.0,17.0,52,0.00,,,0.00,,2013-02-10 01:31:00,
2013-02-09 17:41:00,47.0,30.0,28.12,NW,304,8.0,17.0,52,0.00,,,0.00,,2013-02-10 01:41:00,
2013-02-09 17:52:00,47.0,31.0,28.12,NW,309,7.0,18.0,53,0.00,,,0.00,,2013-02-10 01:52:00,
2013-02-09 18:01:00,47.0,31.0,28.13,WNW,295,7.0,18.0,53,0.00,,,0.00,,2013-02-10 02:01:00,
2013-02-09 18:11:00,47.0,31.0,28.13,WNW,295,7.0,18.0,53,0.00,,,0.00,,2013-02-10 02:11:00,
2013-02-09 18:21:00,47.0,31.0,28.13,WNW,295,6.0,14.0,53,0.00,,,0.00,,2013-02-10 02:21:00,
2013-02-09 18:31:00,46.0,30.0,28.14,West,271,4.0,9.0,54,0.00,,,0.00,,2013-02-10 02:31:00,
2013-02-09 18:41:00,46.0,30.0,28.14,West,271,4.0,9.0,54,0.00,,,0.00,,2013-02-10 02:41:00,
2013-02-09 18:52:00,46.0,30.0,28.14,West,277,5.0,12.0,53,0.00,,,0.00,,2013-02-10 02:52:00,
2013-02-09 19:01:00,46.0,30.0,28.15,NNW,335,7.0,14.0,54,0.00,,,0.00,,2013-02-10 03:01:00,
2013-02-09 19:11:00,46.0,30.0,28.15,NNW,335,7.0,14.0,54,0.00,,,0.00,,2013-02-10 03:11:00,
2013-02-09 19:21:00,46.0,30.0,28.15,NW,314,8.0,13.0,54,0.00,,,0.00,,2013-02-10 03:21:00,
2013-02-09 19:31:00,45.0,31.0,28.16,ENE,70,2.0,9.0,58,0.00,,,0.00,,2013-02-10 03:31:00,
2013-02-09 19:41:00,45.0,31.0,28.16,ENE,70,2.0,9.0,58,0.00,,,0.00,,2013-02-10 03:41:00,
2013-02-09 19:52:00,39.0,30.0,28.17,SSE,150,1.0,4.0,71,0.00,,,0.00,,2013-02-10 03:52:00,
2013-02-09 20:01:00,39.0,30.0,28.17,SE,131,1.0,3.0,71,0.00,,,0.00,,2013-02-10 04:01:00,
2013-02-09 20:11:00,39.0,30.0,28.17,SE,131,1.0,3.0,71,0.00,,,0.00,,2013-02-10 04:11:00,
2013-02-09 20:21:00,38.0,30.0,28.18,ESE,118,0.0,3.0,72,0.00,,,0.00,,2013-02-10 04:21:00,
2013-02-09 20:31:00,38.0,29.0,28.18,ESE,116,0.0,1.0,71,0.00,,,0.00,,2013-02-10 04:31:00,
2013-02-09 20:41:00,38.0,29.0,28.18,ESE,116,0.0,1.0,71,0.00,,,0.00,,2013-02-10 04:41:00,
2013-02-09 20:52:00,40.0,31.0,28.19,ENE,71,1.0,5.0,69,0.00,,,0.00,,2013-02-10 04:52:00,
2013-02-09 21:01:00,38.0,30.0,28.19,NW,321,0.0,2.0,72,0.00,,,0.00,,2013-02-10 05:01:00,
2013-02-09 21:11:00,38.0,30.0,28.19,NW,321,0.0,2.0,72,0.00,,,0.00,,2013-02-10 05:11:00,
2013-02-09 21:22:00,39.0,30.0,28.19,WNW,295,1.0,3.0,70,0.00,,,0.00,,2013-02-10 05:22:00,
2013-02-09 21:31:00,39.0,30.0,28.19,WNW,295,1.0,3.0,70,0.00,,,0.00,,2013-02-10 05:31:00,
2013-02-09 21:41:00,39.0,30.0,28.19,WNW,295,1.0,3.0,70,0.00,,,0.00,,2013-02-10 05:41:00,
2013-02-09 21:52:00,40.0,30.0,28.20,NW,314,6.0,9.0,67,0.00,,,0.00,,2013-02-10 05:52:00,
2013-02-09 22:01:00,41.0,31.0,28.20,West,280,4.0,10.0,66,0.00,,,0.00,,2013-02-10 06:01:00,
2013-02-09 22:11:00,41.0,31.0,28.20,West,280,4.0,10.0,66,0.00,,,0.00,,2013-02-10 06:11:00,
2013-02-09 22:21:00,41.0,31.0,28.20,West,276,5.0,10.0,66,0.00,,,0.00,,2013-02-10 06:21:00,
2013-02-09 22:32:00,40.0,30.0,28.21,East,99,1.0,7.0,66,0.00,,,0.00,,2013-02-10 06:32:00,
2013-02-09 22:42:00,40.0,30.0,28.21,East,99,1.0,7.0,66,0.00,,,0.00,,2013-02-10 06:42:00,
2013-02-09 22:52:00,39.0,30.0,28.21,NNW,336,1.0,4.0,70,0.00,,,0.00,,2013-02-10 06:52:00,
2013-02-09 23:01:00,39.0,29.0,28.22,North,352,5.0,11.0,68,0.00,,,0.00,,2013-02-10 07:01:00,
2013-02-09 23:11:00,39.0,29.0,28.22,North,352,5.0,11.0,68,0.00,,,0.00,,2013-02-10 07:11:00,
2013-02-09 23:21:00,39.0,30.0,28.22,ENE,59,1.0,5.0,70,0.00,,,0.00,,2013-02-10 07:21:00,
2013-02-09 23:31:00,39.0,30.0,28.22,WNW,290,7.0,13.0,70,0.00,,,0.00,,2013-02-10 07:31:00,
2013-02-09 23:41:00,39.0,30.0,28.22,WNW,290,7.0,13.0,70,0.00,,,0.00,,2013-02-10 07:41:00,
2013-02-09 23:52:00,38.0,29.0,28.22,North,1,3.0,11.0,71,0.00,,,0.00,,2013-02-10 07:52:00,